ORBCOMM FM116 [+] (41189 NORAD) Tracking and Keplerian Element Data

This shows tracking and keplerian element data for the satellite.

Feedback or suggestion? Click here.




ElementValue
Catalog41189
NameORBCOMM FM116 [+]
Epoch Orbit15954
Epoch Day348.80568379
Epoch Year2018
RAAN211.5985
Inclination47.0007
Eccentricity0.0002177
Argument of Perigee346.007
Mean Anonmoly14.0754
Mean Motion14.5475225
Decay Rate-8.6E-07
L11 41189U 15081L 18348.80568379 -.00000086 00000-0 18413-4 0 9994
L22 41189 47.0007 211.5985 0002177 346.0070 14.0754 14.54752250159541

Live tracking and technical data element details for ORBCOMM FM116 [+] (NORAD 41189). ORBCOMM FM116 [+] can be tracked NOW for your location showing map with azimuth and elevation plus other details from your city location.

Track the satellite on the map from your city or location and see movement details for azimuth, elevation, latitude, longitude, range, height, and movement on the map or in text.







IsCatalogInMostPopularTable: catalog: 41189, numindb: 94
Update: records affected: 1



GetName: 41189 ORBCOMM FM116 [+]

Hit Count: updated at: Sat, 15 Dec 2018 14:21:48 GMT